{"data":{"norad_id":66778,"intl_designator":"2025-276DS","name":"FORESAIL-1 PRIME","alt_names":[],"object_type":"PAYLOAD","status":"ACTIVE","operator":null,"country":"FIN","launch_date":"2025-11-28","launch_site_code":"AFWTR","launch_vehicle":null,"mission":null,"orbit_class":"UNKNOWN","rcs_meters":null,"size_class":null,"mass_kg":null,"dimensions":null,"purposes":["tech_demo"],"wikipedia_slug":null,"has_3d_model":false,"image_url":null,"decayed_at":null,"tle_current":{"epoch":"2026-09-19T22:02:36.608064Z","epoch_age_seconds":65007,"freshness":"FRESH","line1":"1 66778U 25276DS  26262.91847926  .00002716  00000+0  13162-3 0  9991","line2":"2 66778  97.4116 334.4563 0003583 119.6315 240.5277 15.19377039 44782","mean_motion":15.19377039,"eccentricity":0.0003583,"inclination_deg":97.4116,"raan_deg":334.4563,"arg_perigee_deg":119.6315,"mean_anomaly_deg":240.5277,"bstar":0.00013162,"rev_number":4478,"period_min":94.77568523398,"perigee_km":505.25495197261,"apogee_km":510.18935864331,"semimajor_km":6885.859155308,"source":"CELESTRAK","updated_at":"2026-09-20T09:00:48.040410Z"}}}